Location: Zagreb
(45.8000°N, 16.0000°E)
Time: 20:02:21
(UTC+01:00)

CUTE-I - Pass Details

Date: 02 November 2020
Orbit: 811 x 824 km, 98.7° (Epoch: 01 December)

Event Time Altitude Azimuth Distance (km) Brightness Sun altitude
Rises 05:48:09 0° 20° (NNE) 3,357 ? -9.1°
Reaches altitude 10° 05:50:39 10° 27° (NNE) 2,423 ? -8.7°
Maximum altitude 05:55:43 42° 98° (E) 1,162 ? -7.9°
Drops below altitude 10° 06:00:45 10° 169° (SSE) 2,413 ? -7.0°
Sets 06:03:13 0° 176° (S) 3,343 ? -6.6°
